OBJECT B, 66311

Orbit data source: Space-Track

You're viewing an Uncataloged Satellite

Recently launched and/or uncataloged satellites may have evolving metadata. Metadata may include but not limited to: Owner, Maufacturer, Bus, Motor, and Mission.

OBJECT B, 66311 is a satellite owned by ISRO (IN) in GEO that was launched on Sun, 02 Nov 2025 UTC launched from the Sirharikota (SRI). Unknown objects in Earth's orbit typically refer to objects detected orbiting the Earth but have not yet been identified or cataloged. These objects could be anything from previously untracked satellites, spent rocket stages, debris from satellite collisions, or even natural meteoroids temporarily captured by Earth's gravity.

Not visible in the next 10 days
Identifier
66311, 2025-249B
Orbit
GEO
Country
Flag of ININ / IND
Related business
Manufacturer
ISRO SAC/Banga
Mission
Spacecraft
Bus & Motor
I4K, ISRO LAM
Mass
4,400 kg wet, ~2,000 kg dry
Launch date (UTC)
2025-11-02 (1 month ago)
Launch vehicle
Unknown
Launch site
Sirharikota (SRI)
Object type
Unknown
Shape & HBR
Unknown
Radar Cross Section
RCS unknown

Expand to show TLE details & history
Last TLE update: 1 day ago

TLE from 1 day ago
0 OBJECT B
1 66311U 25249B   25338.44778118 -.00000242  00000-0  00000+0 0  9998
2 66311   0.1609 272.2248 0003847 195.0092 220.9426  1.00267672   400
Epoch: 2025-12-04T10:44Z
TLE epoch observation values (Epoch: 2025-12-04T10:44:48.293Z)
Latitude
0.13656°
Longitude
93.41994°
Altitude
35,799.445 km
Speed
3.074 km/s
True Right ascension
21h 52m 30s
True Declination
0° 08' 11"
Sunlit
Object was in daylight at epoch
Visualization orbit readout
Latitude
Unknown
Longitude
Unknown
Altitude
Unknown
Speed
Unknown
Apparent Right ascension
Unknown
Apparent Declination
Unknown
Sunlit
N/A
Visualization observer readout
Local Sidereal Time
12:53:39
Azimuth
Unknown
Elevation
Unknown
Doppler factor
Unknown
Orbital elements
Apogee altitude
35,805.04 km
Perigee altitude
35,772.597 km
Semi-major axis
42,166.955 km
Eccentricity
0.00038
Inclination
0.1609°
RAAN
272.2248°
Arg. of periapsis
195.0092°
True anomaly
220.91372°
Mean anomaly
220.9426°
Eccentric anomaly
220.92816°
Mean motion
0.25066 °/min
Orbital period
1,436.21 mins
BSTAR
0
Loading maneuver chart data...
Computing Atmospheric mass density...
Loading historical data...
Loading historical data...
Loading historical data...
Loading historical data...
Loading historical data...
Loading historical data...
Loading historical data...
Other satellites on launch #249 in the year 2025 (2025-11-02 UTC)

Documentation

Showing up to 5 results
|